Wind_Speed
63 62 62 62 62 63 63 63 64 64 64 64 64 64 65 65 65 66 67 68 69 70 70 72 73 73 73 72 70 69 70 72 74 76 77 78 78 80 81 81 80 78 78 77 75 71 67 65 63 61 59 57 56 59 64 66 66 65 61 57 54 52 51 49 46 45 44 44 41 35 28 24 22 21 21 20 22 24 25 25 23 22 22 23 24
62 61 60 61 61 62 63 63 64 64 65 65 66 66 67 67 67 68 69 70 71 72 73 73 74 73 72 70 70 71 73 75 76 78 78 78 80 82 82 80 79 78 76 74 70 67 64 63 61 59 56 55 57 64 67 66 64 60 55 52 52 50 47 45 43 42 42 40 37 32 26 22 21 20 21 22 23 25 26 25 23 22 23 23 24
62 61 61 61 61 62 63 64 64 64 65 66 66 67 68 68 68 69 70 71 71 72 72 72 72 70 70 70 72 74 76 77 78 79 79 80 82 82 81 80 78 75 73 70 67 63 62 61 59 56 54 56 63 68 66 62 58 52 51 51 49 45 43 41 39 39 39 37 34 30 24 21 20 20 21 23 24 26 26 25 23 23 23 24 24
64 63 63 63 63 64 65 65 66 66 66 66 67 67 68 68 69 70 70 70 70 69 70 71 71 70 71 72 74 76 78 78 79 80 81 82 83 81 79 77 75 72 70 68 64 60 60 60 57 53 55 61 67 67 61 55 50 49 51 49 44 41 39 38 37 37 37 35 32 28 23 20 20 21 23 24 25 26 26 25 24 23 23 24 24
65 65 65 66 66 67 67 67 68 68 68 68 68 69 68 68 69 69 69 69 69 69 70 70 71 72 73 75 77 78 79 79 80 81 82 82 81 78 75 73 72 69 67 65 62 59 58 58 54 54 60 65 67 63 55 50 48 50 50 44 39 37 36 35 35 36 35 33 30 27 22 19 20 22 23 25 25 26 26 25 24 24 24 24 24
66 66 67 67 68 69 69 69 70 70 70 70 71 71 71 70 70 70 70 70 70 71 71 71 72 74 75 77 78 79 80 81 81 81 81 80 77 74 72 71 69 67 66 64 62 60 58 56 55 59 65 66 64 57 51 49 49 51 46 38 35 34 34 34 35 34 33 32 30 27 22 19 21 23 24 25 26 26 26 26 25 24 24 23 23
67 67 68 69 70 70 71 71 71 72 72 73 73 73 73 72 72 71 71 71 72 72 71 72 74 75 76 78 79 80 80 80 80 80 79 76 74 72 71 71 70 69 67 64 62 61 59 57 59 64 66 64 61 54 50 49 50 48 40 34 33 32 34 35 35 34 34 33 30 27 24 20 21 24 25 26 27 27 27 26 24 23 22 21 21
69 69 70 71 71 72 72 73 73 74 75 75 76 76 75 74 74 74 74 74 74 73 73 74 75 76 78 79 79 79 79 79 79 78 76 74 74 74 74 74 73 71 67 63 60 60 59 60 63 66 64 62 58 52 50 49 49 44 34 31 32 33 35 36 36 36 36 34 31 29 27 24 23 24 26 28 29 29 28 27 25 23 22 21 21
70 71 71 72 73 74 74 75 75 76 77 77 78 78 78 77 77 77 77 77 77 76 76 77 77 77 79 79 79 78 78 78 78 76 75 74 74 74 74 72 69 67 64 61 60 60 60 61 64 63 61 60 56 51 50 50 47 38 31 31 32 34 36 37 38 39 38 36 33 30 29 27 26 25 27 29 31 31 30 29 27 25 24 23 23
73 73 73 74 75 76 76 77 78 78 79 80 80 80 80 80 81 81 80 80 79 79 79 78 78 79 80 79 79 78 78 78 77 76 74 73 72 70 68 65 64 63 62 60 60 60 60 61 61 60 59 57 54 51 50 49 42 33 31 32 34 36 38 39 40 40 40 38 35 33 31 30 30 28 28 30 32 33 32 31 29 28 27 25 25
75 75 76 77 78 78 79 79 79 80 81 81 82 82 83 83 84 83 82 81 80 79 79 79 80 80 80 80 79 78 78 77 76 74 73 71 68 66 64 64 64 63 61 60 60 59 59 59 58 58 56 53 51 50 49 44 35 31 33 34 36 38 38 39 40 40 40 38 35 34 33 33 33 32 31 31 33 34 34 34 32 31 29 27 27
77 78 79 79 79 80 81 81 82 82 83 83 83 81 82 83 83 82 81 80 79 79 78 78 79 79 79 79 78 77 76 75 73 71 68 66 64 65 65 65 65 63 62 60 59 58 57 57 56 55 53 51 50 48 44 37 32 32 35 36 38 38 38 39 40 40 39 36 34 33 33 34 35 35 34 33 33 34 34 35 35 33 32 30 29
80 81 82 82 82 82 82 83 83 82 83 80 76 74 72 71 71 72 72 73 73 73 74 74 74 74 75 75 74 74 73 72 69 65 63 63 64 66 66 65 64 63 62 60 57 57 56 55 54 52 51 49 46 43 37 34 33 35 37 38 38 37 38 39 40 39 37 35 32 31 31 33 35 36 36 35 35 34 35 36 37 36 35 33 31
83 84 84 84 84 84 84 84 82 81 80 72 66 62 58 58 59 61 63 64 65 66 67 68 69 71 71 71 72 72 70 67 62 60 61 64 66 66 66 65 64 62 60 58 56 55 55 54 51 49 48 45 41 37 34 34 35 36 37 37 38 37 37 39 39 37 35 33 30 29 28 30 34 37 37 37 36 35 35 36 37 38 38 36 34
85 85 86 86 86 85 85 84 83 82 79 72 64 56 51 54 58 60 61 62 63 64 64 66 68 70 70 71 71 68 65 61 59 61 65 68 67 66 65 64 62 60 58 56 54 54 54 51 47 46 44 41 37 34 34 35 36 36 36 37 37 37 37 38 38 35 33 31 30 28 27 28 31 35 37 38 38 37 36 37 37 39 39 39 38
86 86 86 85 84 84 83 82 82 79 76 73 68 62 59 61 64 67 68 68 69 68 68 70 70 71 70 68 64 62 61 61 63 66 69 68 66 65 63 61 59 57 56 54 53 53 51 47 45 45 43 38 35 35 35 35 35 35 36 36 37 37 37 37 35 33 31 30 30 28 27 28 29 31 34 36 37 37 36 36 35 36 36 36 36
88 86 85 83 82 82 81 79 79 76 74 73 72 71 71 72 74 74 73 73 73 71 71 71 70 68 64 62 62 64 65 66 67 69 68 66 63 61 59 57 56 55 54 52 52 51 48 45 46 46 43 38 37 36 36 36 35 35 35 36 37 37 37 36 33 31 29 30 29 28 27 27 27 27 28 29 29 29 29 28 28 28 28 29 29
86 85 84 83 82 81 80 79 78 78 77 76 74 72 73 74 74 72 70 69 68 68 68 68 66 63 61 64 67 68 69 69 68 66 64 62 60 58 56 54 53 52 51 51 51 49 46 46 48 46 42 39 39 38 36 36 35 36 35 36 37 38 37 35 32 30 28 28 27 26 25 24 24 23 22 22 21 21 21 21 22 22 22 23 23
84 83 82 82 81 80 79 78 78 77 75 73 71 69 69 69 68 67 65 65 65 64 63 64 64 64 66 68 69 69 68 67 64 62 60 59 58 56 54 52 51 49 49 51 51 48 47 48 47 43 41 41 40 39 37 36 36 37 37 37 38 39 39 34 30 29 27 27 27 26 23 22 22 22 20 19 19 19 19 19 19 18 19 19 19
82 81 80 79 78 78 77 76 75 73 70 66 65 66 66 65 65 64 63 64 64 64 64 65 66 68 69 69 68 67 64 61 59 58 58 58 56 54 53 51 49 49 50 51 50 48 49 48 44 42 42 41 41 40 38 36 37 38 39 40 40 40 38 33 30 28 27 28 28 26 22 21 22 22 20 20 19 19 19 18 17 16 16 16 17
80 79 78 77 76 75 73 72 71 70 68 66 65 66 66 66 65 65 66 67 69 68 68 68 68 69 67 66 64 61 59 57 57 57 57 56 54 53 52 50 50 50 51 51 50 50 49 46 43 42 41 41 42 42 39 37 37 40 42 41 40 39 36 33 29 27 29 30 29 26 22 21 22 23 22 21 19 18 18 16 15 14 15 16 17
79 78 76 75 74 72 71 69 67 67 66 66 66 67 68 68 69 70 72 72 71 70 69 68 67 65 62 60 58 58 57 56 56 55 55 54 53 52 51 50 50 50 50 50 50 49 46 43 42 41 40 40 42 42 39 37 39 42 42 40 39 38 36 34 30 27 28 30 29 27 23 21 22 23 23 22 20 19 18 16 14 13 14 15 16
76 75 74 73 73 72 71 71 71 69 69 69 69 69 70 70 70 72 72 71 69 67 66 64 62 60 58 56 56 56 56 55 55 55 55 54 52 51 50 50 49 48 49 49 48 46 43 42 42 40 39 40 41 41 38 38 41 43 41 39 38 38 37 36 31 27 27 29 29 28 23 20 21 22 23 23 21 20 19 17 15 14 14 14 16
74 73 72 72 72 72 72 73 74 73 72 72 72 71 70 70 69 69 68 67 65 63 62 60 58 57 57 56 55 54 55 56 56 55 54 52 50 49 48 48 48 49 49 47 44 42 42 42 41 39 39 40 41 39 38 41 44 42 41 40 39 40 40 37 31 27 27 27 28 28 23 21 21 22 22 22 21 21 20 19 17 16 16 17 17
73 73 72 72 71 71 71 72 72 72 72 71 71 70 68 68 67 66 64 63 61 59 58 57 57 57 57 56 54 53 54 54 54 52 51 49 49 48 47 47 48 47 45 43 41 41 42 41 39 38 39 40 41 39 39 44 46 44 44 43 42 42 40 35 29 27 27 26 26 26 23 21 21 21 21 21 21 21 21 20 19 19 19 20 20
72 71 70 70 70 69 70 69 69 68 68 67 67 66 65 65 64 63 61 59 57 56 56 57 57 57 55 54 52 52 51 51 51 49 48 48 48 47 46 46 45 43 42 41 40 40 41 39 38 38 39 41 41 41 42 46 48 48 46 44 44 42 38 32 28 27 26 24 24 23 22 21 21 22 21 21 22 22 21 21 21 22 22 23 23
70 69 69 68 68 67 66 65 64 62 62 63 63 62 62 61 60 59 57 55 54 55 56 57 56 55 53 51 50 50 49 48 47 47 47 46 45 44 44 44 42 41 40 39 38 39 38 37 37 39 40 41 42 43 45 49 51 48 44 44 45 41 37 31 27 27 25 22 22 23 22 21 20 21 22 22 23 23 22 22 22 23 24 24 24
67 67 66 65 64 63 61 60 58 57 59 60 60 60 59 58 57 56 55 54 55 56 56 55 53 50 49 47 47 47 46 45 44 44 43 41 42 43 43 42 41 40 38 37 36 36 36 36 38 40 42 42 44 45 48 52 49 44 43 45 45 40 35 30 27 26 24 21 23 25 23 20 19 20 21 23 23 23 23 23 23 23 24 24 24
65 65 64 63 62 61 59 58 56 56 56 57 57 57 56 56 55 53 52 51 52 53 52 51 48 46 44 43 43 44 44 44 43 42 39 41 45 45 43 41 40 38 36 36 35 35 36 38 40 41 43 44 46 49 52 51 45 43 45 46 44 37 32 31 28 26 24 22 23 25 22 19 19 19 20 21 22 23 23 23 23 23 23 23 23
64 63 62 62 61 60 59 57 54 52 51 52 52 52 51 51 50 49 48 49 49 49 48 47 44 41 41 41 40 41 42 43 42 41 42 47 49 47 45 42 40 38 37 38 37 36 38 40 42 44 45 48 51 52 51 45 42 46 48 46 41 33 29 29 28 27 25 22 21 22 20 19 20 20 21 21 21 22 23 23 23 22 22 22 22
63 62 61 60 59 58 57 55 52 51 51 52 51 50 49 47 48 49 50 51 50 48 47 46 42 39 40 40 40 40 41 42 42 43 49 52 50 47 46 45 43 42 41 40 39 40 42 45 47 49 51 52 51 48 45 41 43 47 47 42 34 28 26 25 25 26 25 23 21 21 18 18 21 21 21 21 21 22 23 23 23 23 22 23 24
62 61 59 58 57 56 55 54 54 55 55 55 54 53 50 50 51 52 53 53 50 47 45 45 43 40 41 41 41 42 42 43 45 51 54 53 50 48 47 47 47 46 44 43 44 47 50 52 53 53 52 49 45 42 42 43 46 46 42 36 29 24 22 20 22 24 24 24 22 19 16 15 18 19 19 21 21 21 22 23 24 24 24 26 28
60 59 57 55 54 54 54 54 54 55 56 57 57 56 55 56 56 55 54 52 48 45 44 44 42 42 44 45 46 46 47 48 52 55 54 52 50 49 48 49 48 47 47 47 49 51 52 53 51 50 47 43 41 42 44 46 47 42 35 30 24 20 18 17 18 20 20 21 20 18 16 15 15 15 17 19 20 21 22 23 24 25 27 28 30
57 56 54 52 52 52 51 51 52 55 57 59 59 58 57 56 54 51 49 47 45 44 42 42 43 43 45 47 47 48 49 50 52 51 50 49 49 48 48 46 45 45 46 47 49 50 50 49 47 45 43 41 41 44 47 48 45 36 29 26 21 18 20 20 19 20 20 20 20 19 18 17 15 13 15 16 18 20 21 22 24 25 27 29 30
54 52 50 50 51 51 49 48 50 55 55 54 52 51 49 46 45 44 43 44 44 43 42 43 44 45 46 45 43 42 43 44 44 44 44 44 45 45 44 42 41 42 44 46 47 47 47 45 43 41 41 41 43 47 48 46 39 28 25 24 20 20 24 24 23 23 23 23 23 22 21 20 18 17 18 20 22 23 23 22 23 25 26 27 26
52 51 50 50 49 49 48 48 51 53 51 48 47 44 41 39 39 40 41 43 43 42 42 43 44 45 45 42 39 38 38 39 39 39 39 39 39 40 40 41 41 43 45 46 46 45 43 42 40 40 41 43 46 49 48 42 32 24 25 25 21 21 25 26 26 26 26 25 25 25 25 25 24 23 24 26 26 25 24 23 23 25 25 25 24
52 51 49 48 48 49 50 50 51 52 51 49 47 44 41 39 40 42 41 41 41 40 41 42 43 43 42 39 38 38 38 38 37 35 36 37 39 40 41 42 43 44 45 44 43 41 40 39 39 41 44 46 48 48 44 36 28 24 26 25 21 22 24 26 27 27 26 24 25 27 27 28 28 28 29 30 29 26 25 25 25 24 25 26 26
49 49 47 47 49 50 48 46 46 47 47 47 46 46 45 43 42 42 40 40 41 41 41 41 41 41 40 39 39 39 39 37 35 35 38 41 41 41 42 42 42 43 42 41 40 38 37 37 39 43 47 47 46 42 36 29 24 23 26 25 23 23 25 27 27 27 26 25 26 26 26 27 29 32 34 34 32 28 27 26 23 22 24 26 28
44 46 46 47 49 48 45 44 43 43 42 42 44 45 45 45 44 43 43 43 43 41 40 39 39 40 42 42 40 40 40 38 37 39 43 43 41 40 40 40 40 40 39 38 36 35 35 37 41 44 44 42 38 33 28 25 22 21 23 24 24 24 26 28 28 27 26 26 26 24 24 25 26 29 32 32 31 29 28 26 22 21 22 24 26
38 41 46 48 48 46 43 42 42 42 41 41 43 44 45 47 49 49 48 47 45 42 40 40 41 43 44 43 42 42 42 42 43 45 45 42 40 40 39 39 38 36 35 34 34 35 36 38 39 39 37 33 30 28 25 23 23 22 23 24 25 25 26 28 28 26 25 25 25 25 24 25 25 28 30 31 30 29 28 27 25 24 23 23 24
31 34 43 44 46 46 41 37 37 38 39 40 43 44 45 47 49 49 49 48 48 46 42 41 42 43 44 43 42 41 42 44 46 46 45 43 42 41 39 37 34 33 32 33 34 35 36 35 33 30 28 27 26 26 24 23 25 24 25 27 27 27 27 28 28 26 24 24 24 25 25 25 27 29 30 29 27 27 27 28 29 29 27 25 25
34 36 42 40 40 41 40 38 36 35 36 38 40 41 42 44 45 47 47 48 48 46 43 43 42 42 43 42 40 40 43 46 46 46 46 45 43 40 36 33 31 31 31 32 34 34 33 30 26 24 23 24 23 24 24 23 26 28 29 30 30 30 30 30 29 27 26 26 26 26 26 25 24 25 26 26 27 29 30 31 33 33 31 28 26
43 44 43 40 38 37 39 40 39 39 40 41 42 43 44 44 45 45 46 47 46 44 43 43 42 41 44 44 42 44 47 48 46 45 44 42 40 36 34 31 30 29 30 32 32 30 28 25 22 21 21 22 22 22 24 24 26 30 31 33 33 32 32 33 31 30 30 30 30 30 29 27 26 27 27 28 30 32 32 33 34 34 33 30 29
47 48 46 43 41 40 41 43 43 42 43 44 45 46 47 47 47 46 46 47 46 44 42 41 41 42 45 46 47 49 49 47 44 42 40 38 36 34 32 30 29 29 29 28 27 27 25 22 21 22 23 23 24 23 23 24 26 30 33 35 35 35 35 36 35 34 34 33 33 33 32 32 32 31 30 30 31 31 32 33 34 34 34 34 32
46 49 49 48 46 44 44 44 44 44 44 45 45 46 46 47 46 45 44 45 44 44 42 42 42 44 46 48 49 49 47 44 40 37 36 36 34 33 30 28 27 27 25 25 26 27 26 24 23 24 26 26 26 25 23 23 25 30 34 36 37 37 38 38 38 38 38 37 37 36 36 36 35 35 34 33 33 32 33 33 34 35 36 36 35
45 48 50 50 50 48 46 45 44 44 44 45 46 46 46 46 45 43 43 43 43 42 41 42 44 45 46 47 47 45 43 40 37 34 35 35 34 33 29 27 27 26 25 27 28 28 28 27 27 29 29 29 29 28 25 23 23 28 34 38 39 39 40 39 38 39 39 39 39 39 40 40 40 40 40 40 39 39 39 39 39 39 39 39 38
44 46 48 49 49 47 45 43 41 40 40 40 43 45 46 46 45 44 43 44 43 41 40 41 42 43 44 43 41 40 38 36 35 34 35 35 35 33 30 29 29 28 29 31 31 29 29 30 30 31 31 31 31 30 27 25 23 25 30 37 41 42 43 43 43 43 42 42 41 42 42 43 44 45 46 46 46 45 44 43 42 42 42 42 41
42 43 45 47 47 46 43 41 40 38 36 36 37 39 41 42 43 43 42 41 40 39 39 40 41 41 41 40 38 37 36 35 34 35 35 35 35 33 32 31 31 32 33 32 31 29 30 30 30 31 31 31 32 31 30 28 26 25 27 33 39 44 46 46 46 47 47 47 47 47 47 48 49 50 51 51 51 50 48 46 44 43 43 43 43
40 40 42 44 45 46 45 43 42 41 39 37 36 35 36 38 39 40 40 40 39 38 37 38 39 39 39 38 37 36 35 33 33 33 33 34 34 34 34 33 34 35 33 30 29 29 29 30 30 31 32 33 33 33 32 31 29 27 27 30 34 39 44 47 48 49 50 51 52 52 53 54 54 54 54 54 54 53 52 50 48 46 44 44 44
38 38 39 41 42 44 44 43 42 42 40 38 36 36 36 37 38 39 40 40 39 38 37 38 38 39 39 38 37 35 33 30 28 28 30 32 33 34 35 35 36 34 30 28 28 29 30 31 31 33 35 36 36 36 34 33 31 29 28 29 32 35 38 42 46 49 51 52 53 54 55 55 56 56 55 55 55 55 54 53 50 48 45 44 44
38 38 39 39 40 42 43 43 42 42 42 40 39 38 39 40 40 41 41 40 39 38 38 39 38 38 39 39 37 35 32 29 26 27 30 32 33 34 34 34 33 29 27 27 28 29 31 32 34 37 39 40 39 38 36 34 33 31 28 28 30 32 34 37 40 43 46 48 49 50 51 51 51 51 51 51 51 51 51 50 49 47 45 43 42
Wind_Direction
276 277 278 279 279 279 280 280 281 281 282 284 285 286 287 288 289 290 291 291 292 293 293 294 295 295 296 297 298 299 300 301 302 304 305 306 308 309 310 310 311 311 312 312 313 313 313 314 314 312 311 310 310 312 312 312 311 310 311 309 309 310 310 308 308 310 311 309 308 305 298 289 280 271 261 256 258 257 254 253 255 260 264 267 272
274 276 277 278 279 280 280 281 281 282 283 284 285 285 286 287 289 289 290 290 291 292 293 294 295 295 296 298 299 300 301 302 303 304 306 307 308 309 309 310 310 311 312 313 313 314 313 314 313 310 309 309 309 311 313 312 310 310 310 308 309 310 308 307 310 312 312 310 308 305 297 286 276 264 256 257 257 255 255 257 258 260 263 266 269
273 275 276 277 278 280 281 282 282 283 284 284 285 285 286 287 288 289 289 290 292 293 293 294 296 296 297 298 299 300 301 302 303 304 305 307 308 308 309 309 310 312 313 313 314 314 313 313 312 309 308 308 309 312 313 311 309 310 309 309 310 309 307 309 313 314 313 311 308 303 294 283 273 261 256 258 256 254 256 258 257 258 261 263 266
273 275 276 278 278 279 280 281 282 283 284 284 285 286 287 288 288 289 290 291 293 294 294 295 296 296 297 299 300 300 301 302 303 304 305 306 307 308 308 309 311 312 312 312 314 312 311 312 310 307 307 308 311 313 313 310 309 309 310 310 309 307 308 312 316 317 314 312 307 300 291 280 269 261 259 258 256 256 257 257 256 258 260 261 264
274 276 277 278 279 280 280 281 282 283 284 285 286 287 288 289 289 290 291 292 293 294 294 295 296 296 297 298 299 300 301 302 303 304 305 306 307 308 309 310 311 311 310 311 312 310 309 309 308 306 308 309 312 315 313 309 308 310 311 310 308 308 311 315 318 319 317 313 307 297 289 280 272 266 263 261 258 257 257 256 257 258 258 261 265
274 276 277 278 279 280 280 281 282 283 284 286 287 287 288 289 290 291 291 291 292 293 294 294 295 296 296 298 299 300 301 302 303 304 305 306 307 307 308 309 309 309 309 309 310 310 309 307 306 306 309 310 313 315 311 307 309 311 311 308 308 310 313 317 320 321 320 315 306 295 286 278 274 270 265 262 258 255 255 255 256 258 260 263 267
274 275 277 278 279 280 281 282 283 284 285 286 287 288 289 289 290 291 291 291 292 293 293 294 295 296 297 298 299 300 300 301 302 304 305 305 305 305 306 306 306 306 307 309 309 309 308 305 305 307 309 311 313 313 308 307 310 312 309 306 308 311 314 316 319 321 320 315 306 293 281 269 265 266 264 259 255 252 252 254 256 259 262 265 269
274 275 276 277 279 280 281 282 283 284 285 286 287 287 288 290 290 291 290 291 292 292 292 293 295 296 298 298 298 299 299 300 302 303 303 303 303 303 303 303 304 304 306 308 309 309 306 304 306 307 309 311 312 310 307 308 311 310 305 305 308 311 315 317 319 319 317 313 304 290 278 265 255 256 258 255 253 252 251 253 256 260 265 270 275
275 275 276 277 279 280 281 282 283 284 285 286 287 288 289 290 290 291 291 291 291 291 292 293 294 296 297 297 297 297 298 300 301 301 301 302 302 301 302 303 304 305 306 308 309 308 306 305 307 307 309 310 309 306 306 309 310 305 300 302 307 313 317 319 319 317 314 310 302 289 275 264 253 246 249 252 251 251 251 252 256 260 266 273 277
275 276 277 278 278 279 280 281 282 284 285 286 287 288 289 290 290 291 291 291 292 292 292 292 293 294 294 294 295 296 298 299 299 299 300 301 301 301 302 304 305 306 307 309 309 307 305 306 307 307 309 310 307 304 305 307 306 299 296 301 308 315 319 321 320 318 314 308 302 290 275 264 256 245 242 248 250 250 251 252 256 261 267 273 276
275 275 276 277 278 279 280 281 283 284 285 286 287 288 290 290 290 290 291 292 292 292 292 291 291 292 292 293 294 296 297 298 298 299 299 300 300 301 302 303 305 307 308 309 308 305 305 306 307 308 310 309 306 303 305 305 299 293 295 302 309 316 320 322 321 319 314 308 302 292 278 266 259 251 243 243 247 249 251 254 258 262 267 271 274
274 274 275 276 278 279 280 281 283 284 285 286 288 290 291 291 290 290 290 290 290 290 290 290 290 291 291 292 293 295 296 298 299 299 298 298 299 301 302 303 305 307 308 308 307 305 306 307 308 309 310 308 305 304 304 300 292 290 294 302 309 317 322 323 322 319 314 308 302 292 280 267 260 256 252 248 247 248 251 255 259 263 268 270 273
273 274 275 276 277 278 280 281 283 285 286 288 291 293 293 292 290 290 290 290 290 290 290 290 290 291 292 293 294 295 297 298 299 298 298 299 300 301 302 303 305 306 307 306 306 306 307 308 309 309 308 307 305 304 301 293 288 290 295 303 310 318 323 324 324 320 313 307 302 293 282 270 262 259 258 257 254 252 252 254 258 262 267 270 272
273 274 275 275 277 279 281 282 284 285 286 289 293 292 290 291 292 292 291 291 291 291 290 291 292 292 293 294 295 296 297 298 297 297 299 301 301 301 302 303 305 305 305 305 305 305 307 308 309 308 307 306 304 300 294 289 289 292 298 306 313 319 323 326 324 319 312 307 302 296 285 274 266 261 259 259 261 261 260 260 260 261 265 268 270
273 274 275 276 278 280 281 282 283 283 284 286 288 286 286 290 291 291 291 291 292 291 291 292 294 294 294 295 295 296 296 296 295 297 300 301 301 301 302 303 304 303 303 304 304 305 307 308 308 307 306 305 300 293 289 288 291 296 303 310 315 319 324 327 324 317 311 305 302 297 288 280 271 264 261 260 262 266 268 268 266 265 265 267 268
272 274 275 276 278 280 280 281 282 282 282 283 282 279 282 286 288 289 288 288 290 289 290 292 294 294 295 295 295 296 295 295 296 299 300 301 300 301 302 303 303 301 301 302 303 304 306 306 306 306 305 301 293 288 287 289 294 300 308 314 316 320 325 328 324 315 308 303 301 297 290 284 277 269 265 264 265 268 271 272 271 269 268 268 268
272 273 275 276 278 279 281 281 282 282 282 282 281 278 278 281 284 286 286 287 288 289 289 292 294 294 294 294 295 296 295 296 297 299 299 300 300 300 301 301 300 299 300 300 301 304 303 303 305 305 302 297 290 287 287 291 296 304 312 316 317 319 325 328 324 314 305 302 300 297 291 285 280 273 268 267 268 271 274 275 274 272 270 268 266
272 273 275 277 278 279 280 281 282 282 282 282 281 279 280 281 283 286 286 287 288 289 290 292 293 292 293 294 295 295 295 296 297 298 299 299 299 298 299 299 299 299 298 299 300 301 301 302 303 302 299 295 291 287 288 293 298 307 314 317 316 317 323 327 323 312 302 301 301 298 292 285 278 272 269 268 270 274 277 278 277 274 270 268 266
273 274 276 277 278 279 280 281 281 282 283 282 280 280 282 285 286 286 286 287 289 291 292 292 291 291 293 294 294 295 295 296 296 298 298 298 297 297 298 299 299 298 297 298 299 299 300 302 301 299 297 294 291 287 289 294 300 308 315 317 315 315 320 324 322 310 300 300 301 300 293 282 274 270 269 269 273 277 279 280 279 277 272 268 265
274 275 276 278 279 279 280 280 280 281 282 282 282 282 283 286 285 284 286 288 291 291 292 292 292 292 293 293 294 294 295 295 297 298 298 297 296 297 298 298 298 296 296 297 297 298 301 301 299 297 296 294 292 288 289 296 301 309 315 316 314 313 317 319 319 308 299 300 301 300 291 277 269 267 267 268 273 277 280 281 280 279 273 267 263
274 275 276 278 279 279 280 280 280 280 280 282 283 283 284 286 285 284 286 288 290 291 291 292 292 292 293 293 293 294 294 295 296 297 297 296 296 296 297 297 296 296 295 295 296 299 300 298 296 296 295 294 294 289 289 296 303 309 314 315 312 311 312 313 313 305 298 298 297 295 285 273 266 264 264 265 270 274 278 280 278 276 271 265 260
274 275 277 277 278 278 277 278 279 280 280 281 282 283 284 285 284 285 286 287 289 289 290 291 291 291 292 292 293 294 295 296 296 296 296 295 295 295 296 296 296 295 295 295 296 298 297 294 294 294 294 296 294 289 290 298 305 311 314 313 310 306 306 308 307 300 294 292 290 287 280 272 267 264 263 262 266 270 274 277 276 273 270 269 266
275 276 277 277 277 277 275 275 277 278 279 281 282 283 284 285 284 285 285 286 287 288 289 290 289 290 291 292 293 294 295 295 295 295 295 294 294 295 296 297 295 295 295 295 296 295 292 291 293 293 295 297 293 289 292 302 309 312 311 310 306 302 303 305 302 293 287 286 286 282 274 268 265 263 262 259 261 266 271 274 272 269 266 266 266
275 276 276 276 276 276 275 276 277 278 279 281 282 283 283 284 284 284 284 285 287 288 289 288 288 289 291 291 292 292 293 294 294 294 294 292 293 295 296 295 295 295 295 295 293 292 290 291 292 292 296 297 292 289 295 306 311 311 309 307 304 302 303 301 296 288 282 281 282 278 270 263 262 261 259 257 257 262 267 270 267 263 261 260 261
274 275 275 275 276 276 276 276 277 278 279 280 281 282 282 282 283 283 284 285 287 287 287 287 288 290 290 290 291 291 292 293 294 293 291 291 293 295 295 295 296 296 295 293 290 289 290 291 290 292 296 295 290 289 297 305 309 309 307 305 304 302 300 296 291 284 278 277 275 273 268 262 260 259 257 255 255 258 262 264 264 263 261 260 261
273 274 274 274 275 275 276 277 278 279 280 280 279 279 280 280 281 283 284 285 286 285 286 287 289 289 290 290 291 292 292 292 292 290 289 290 292 295 296 296 296 292 292 291 289 288 289 288 289 292 295 293 289 289 296 302 306 306 303 304 305 300 296 291 286 280 275 272 270 269 266 262 260 259 258 255 256 259 262 263 266 267 266 264 263
272 273 273 274 275 276 277 279 280 280 279 279 278 278 278 279 281 282 284 284 284 285 286 287 289 289 290 291 291 291 291 290 287 286 287 290 292 295 295 295 293 290 289 290 289 288 289 287 287 291 292 290 289 290 294 300 303 303 301 304 304 297 291 286 281 277 272 269 269 272 268 261 259 260 260 259 260 263 265 266 268 269 269 268 268
271 272 273 274 275 276 277 278 279 279 278 277 276 277 278 279 281 282 283 283 285 285 286 287 288 289 290 290 289 289 288 286 284 283 285 288 292 293 293 292 292 289 289 290 290 288 289 288 288 289 289 288 289 291 294 299 301 301 301 304 302 294 285 280 279 275 270 266 270 276 272 262 259 259 260 261 263 265 267 268 270 272 272 271 273
271 271 272 273 274 275 276 277 278 277 275 275 276 277 278 279 280 281 281 283 285 285 286 286 286 286 286 286 285 284 283 282 281 280 282 289 292 290 291 292 291 289 290 291 290 288 289 290 289 288 288 288 290 292 296 299 301 302 303 304 299 291 280 275 276 273 266 264 268 275 275 272 268 264 264 265 264 266 268 270 273 274 274 273 272
271 271 272 273 274 275 276 276 275 274 274 274 276 277 277 277 278 279 281 283 285 284 285 285 284 282 278 278 281 280 279 278 277 278 284 291 290 286 286 290 290 290 290 290 290 289 290 290 289 289 289 290 291 294 298 300 302 303 303 301 295 285 274 270 270 268 264 260 262 268 275 287 286 274 273 272 270 270 271 274 276 276 275 274 273
270 271 272 273 275 275 274 273 271 271 273 274 275 275 275 275 278 280 282 284 284 282 284 283 280 276 272 273 277 276 274 274 274 279 288 291 288 283 283 287 290 292 291 289 289 290 292 292 292 292 291 293 295 297 301 303 304 302 299 296 287 275 268 265 263 262 259 257 259 265 271 286 288 281 278 277 274 273 273 273 274 274 274 274 275
270 271 272 273 274 273 272 270 270 271 272 273 273 273 274 276 280 283 283 283 281 280 282 281 275 270 268 271 273 272 270 270 274 282 288 288 286 285 286 289 291 292 291 290 291 293 295 296 296 295 295 297 299 301 303 304 302 299 295 289 278 269 265 261 258 258 258 258 262 269 266 268 277 282 283 279 274 270 269 270 271 272 273 275 278
270 271 272 273 273 272 270 271 272 273 272 272 272 273 275 278 281 282 282 280 278 278 280 278 273 268 269 273 273 271 270 271 276 282 284 283 283 286 289 291 290 289 290 291 293 294 295 297 297 297 298 301 302 303 302 302 301 297 288 278 271 265 260 255 253 257 263 263 265 266 254 253 267 277 282 278 272 268 266 269 272 276 278 281 284
268 270 272 272 270 269 270 273 275 273 272 271 272 274 276 278 279 278 278 277 276 277 275 272 272 274 277 279 278 275 274 276 279 282 283 282 282 285 288 290 289 289 291 292 294 295 296 296 297 298 301 302 301 301 301 301 301 294 278 266 263 258 253 254 252 252 259 267 271 261 241 243 256 262 271 274 271 269 269 272 276 281 286 289 290
267 268 268 268 268 270 272 273 272 270 269 270 272 274 275 277 277 275 275 275 276 275 271 270 274 278 282 283 283 281 280 281 281 282 283 283 283 285 287 289 291 291 292 293 294 295 295 296 297 300 301 300 298 298 300 300 297 286 263 255 255 250 247 253 256 253 254 262 271 263 245 243 249 253 261 269 272 272 273 278 282 287 291 293 292
266 266 265 265 267 268 268 266 264 265 266 268 272 272 272 276 276 273 273 275 276 275 273 274 278 279 281 281 282 283 282 281 280 282 284 285 285 286 287 289 291 292 292 293 293 293 294 297 300 302 300 297 296 296 298 296 289 271 252 250 253 248 247 253 257 256 256 258 265 264 256 251 250 250 255 263 269 271 275 280 284 288 291 292 290
266 266 266 265 263 261 261 261 261 262 264 266 267 267 270 272 270 271 272 272 272 273 275 278 280 279 279 279 281 282 282 280 279 281 286 287 287 287 288 289 290 290 291 291 292 293 296 300 303 302 298 295 295 296 294 289 279 259 246 246 248 246 246 252 253 252 253 255 257 257 255 253 251 249 252 261 268 273 280 284 286 288 289 288 288
266 267 265 262 259 259 258 257 259 261 263 264 263 265 268 266 264 268 268 268 269 272 276 279 279 276 275 276 280 282 281 279 277 282 289 291 291 290 290 289 289 289 289 290 291 294 299 303 303 299 296 296 296 295 289 281 271 254 247 247 246 242 242 246 249 250 252 254 254 252 255 258 258 256 259 265 271 277 284 286 285 284 285 287 289
266 265 262 259 257 256 256 257 259 260 261 263 263 263 263 261 263 265 266 266 268 271 275 276 276 275 275 276 277 279 280 277 277 285 292 293 292 291 289 288 288 288 288 290 293 298 303 303 300 298 297 298 297 294 284 273 263 251 249 251 245 239 240 243 248 251 252 252 250 251 257 261 262 263 266 270 274 279 282 281 279 281 285 288 289
264 265 261 257 255 254 256 260 260 258 259 261 263 262 261 263 265 266 267 266 267 272 274 273 276 278 278 276 275 275 276 277 281 288 291 290 289 287 286 286 286 287 290 295 300 302 302 301 299 299 300 301 299 294 282 265 257 251 245 243 239 236 237 241 245 247 249 251 253 255 259 261 260 262 268 273 275 275 275 273 274 280 285 288 287
254 260 261 257 256 256 255 255 255 256 259 261 262 263 263 265 267 267 268 267 269 273 271 271 276 278 278 275 272 272 275 281 286 289 289 288 286 284 283 283 285 289 294 298 300 300 300 301 303 307 309 306 300 295 285 262 251 250 245 240 237 234 232 234 238 241 243 248 253 255 257 260 261 263 267 271 271 271 272 272 274 278 282 285 283
240 244 253 256 256 255 251 248 251 255 259 260 260 262 263 264 268 270 269 269 272 271 268 271 275 275 275 271 267 271 278 286 288 287 287 286 284 282 281 282 286 292 296 297 297 298 301 303 309 319 321 316 306 297 290 269 249 248 249 244 240 236 232 232 235 238 241 244 248 251 253 256 258 260 262 262 264 269 273 273 274 277 280 280 278
237 237 244 251 254 252 247 247 252 257 258 257 259 263 264 266 269 271 271 272 272 271 270 272 273 274 274 269 268 276 284 287 287 286 286 284 282 281 281 285 290 293 294 294 296 299 303 306 315 326 331 329 320 305 295 281 256 246 249 247 242 239 236 235 235 235 239 244 247 250 253 256 258 261 261 260 264 269 272 272 274 276 277 276 277
238 239 240 245 250 251 250 251 255 258 256 256 259 263 265 267 271 273 274 274 273 273 272 271 270 271 270 269 273 282 286 285 285 285 284 281 281 282 284 289 292 293 292 293 298 303 304 306 314 323 329 332 330 320 306 291 267 250 248 249 246 242 240 239 238 237 239 242 246 250 254 258 262 264 265 266 269 272 273 274 275 275 274 276 279
239 241 241 242 245 248 249 252 256 257 256 257 260 262 265 268 270 271 273 274 274 273 270 268 267 267 267 271 277 283 284 283 284 283 281 280 280 281 283 288 290 290 291 295 303 306 304 303 309 315 322 326 328 326 316 300 278 257 249 250 250 247 244 242 242 241 241 242 244 248 252 258 263 266 269 271 273 276 277 277 278 277 275 277 279
240 242 243 244 246 247 250 254 258 260 260 261 260 261 264 265 267 268 270 272 274 272 269 268 268 268 270 275 280 283 283 283 283 281 279 279 279 278 278 281 284 287 292 298 303 304 300 299 303 309 315 320 323 324 319 307 290 270 256 251 251 252 250 248 247 246 245 245 245 248 252 257 262 266 271 274 277 279 281 282 281 280 279 278 278
241 242 243 245 247 249 252 256 259 261 263 263 262 262 262 262 263 266 268 271 273 274 273 271 272 273 277 280 282 284 283 282 280 278 277 277 276 273 272 274 280 286 293 299 302 299 294 295 300 306 312 317 320 321 320 313 301 285 268 257 253 253 254 254 255 255 255 254 254 255 257 260 263 267 272 277 281 284 285 284 282 280 279 278 276
241 242 243 244 246 248 250 252 254 256 258 260 261 262 262 261 262 263 266 269 272 275 276 276 278 280 282 283 283 282 281 279 277 276 276 275 273 269 268 272 279 289 295 299 300 294 290 293 299 305 310 314 317 318 320 318 310 298 283 270 261 257 256 257 258 259 262 263 264 264 265 267 269 271 275 279 282 285 286 285 283 280 278 276 275
239 241 243 244 245 245 246 248 250 252 254 256 259 261 261 262 262 262 264 269 273 276 278 280 282 283 283 282 282 281 280 278 276 276 275 273 271 267 269 274 281 291 297 297 293 288 288 292 297 302 307 311 313 314 317 320 317 307 295 284 274 266 262 260 259 261 263 265 267 268 269 271 273 275 277 280 282 284 285 285 284 283 280 277 274
237 239 242 244 244 244 245 246 249 251 253 256 258 259 261 262 263 264 267 272 275 277 280 282 283 283 283 282 281 280 278 276 275 276 275 274 273 272 275 280 286 292 296 291 285 284 286 290 294 300 305 308 310 311 314 319 320 314 303 293 285 279 273 268 265 263 264 266 267 269 270 272 274 276 278 280 282 283 283 284 284 284 282 279 275
237 237 240 243 244 244 245 246 247 249 252 255 257 258 260 262 264 267 271 274 276 279 282 283 283 282 281 280 280 278 275 273 272 272 273 274 276 279 282 287 290 292 290 284 281 282 285 289 293 298 302 304 305 308 312 317 320 317 308 299 291 286 284 280 275 271 269 269 271 272 274 275 277 279 281 282 282 283 283 283 283 282 281 279 276
Height
10898 10898 10898 10897 10897 10897 10897 10896 10895 10894 10893 10893 10892 10891 10891 10890 10890 10889 10888 10886 10884 10883 10881 10879 10877 10876 10874 10873 10871 10870 10868 10866 10864 10862 10860 10858 10856 10855 10853 10852 10851 10849 10848 10845 10842 10839 10837 10834 10832 10829 10826 10823 10821 10819 10816 10813 10810 10807 10804 10802 10800 10799 10796 10794 10792 10789 10787 10784 10781 10778 10776 10775 10775 10775 10775 10775 10776 10776 10776 10777 10779 10780 10780 10781 10781
10894 10894 10894 10894 10893 10893 10892 10891 10890 10890 10889 10888 10888 10887 10887 10886 10886 10885 10884 10882 10880 10879 10877 10875 10873 10872 10870 10869 10867 10865 10863 10861 10859 10857 10855 10853 10851 10850 10848 10847 10846 10845 10842 10840 10837 10835 10832 10830 10827 10824 10822 10820 10817 10815 10812 10809 10806 10803 10800 10798 10797 10795 10793 10791 10789 10786 10783 10781 10778 10775 10774 10773 10772 10773 10773 10773 10773 10773 10774 10775 10776 10777 10778 10778 10778
10890 10891 10890 10890 10889 10888 10887 10886 10886 10885 10885 10884 10883 10883 10883 10882 10882 10881 10879 10878 10876 10875 10873 10871 10870 10868 10866 10864 10862 10860 10858 10857 10855 10853 10851 10849 10846 10845 10843 10842 10841 10840 10837 10835 10833 10830 10828 10826 10823 10821 10819 10816 10814 10811 10808 10804 10801 10799 10797 10795 10794 10792 10790 10788 10786 10783 10781 10778 10775 10773 10772 10771 10771 10771 10771 10771 10771 10771 10772 10773 10774 10775 10775 10775 10775
10886 10887 10886 10886 10885 10884 10883 10882 10882 10881 10880 10880 10879 10879 10878 10878 10878 10876 10874 10873 10872 10870 10868 10867 10866 10864 10862 10860 10857 10855 10853 10852 10851 10849 10846 10844 10842 10840 10838 10837 10836 10835 10832 10830 10829 10826 10824 10821 10819 10817 10815 10813 10810 10807 10803 10800 10798 10795 10793 10792 10790 10789 10787 10785 10783 10781 10778 10776 10773 10771 10770 10769 10769 10769 10769 10769 10769 10770 10770 10771 10771 10772 10772 10773 10773
10883 10882 10881 10881 10880 10879 10878 10878 10877 10876 10876 10875 10875 10874 10874 10873 10872 10871 10870 10868 10867 10866 10864 10863 10862 10860 10858 10856 10853 10851 10849 10848 10846 10844 10842 10839 10837 10835 10833 10832 10831 10830 10828 10826 10825 10823 10820 10818 10815 10813 10812 10809 10807 10803 10800 10797 10794 10792 10790 10789 10787 10785 10784 10782 10780 10778 10776 10773 10771 10769 10768 10768 10767 10767 10767 10767 10768 10768 10768 10769 10769 10769 10770 10770 10770
10879 10878 10877 10876 10875 10874 10873 10872 10872 10871 10871 10870 10870 10869 10869 10868 10867 10866 10865 10864 10862 10861 10860 10859 10858 10856 10854 10853 10850 10847 10845 10843 10842 10840 10837 10835 10833 10831 10828 10827 10827 10826 10824 10822 10820 10819 10817 10814 10812 10810 10808 10806 10803 10800 10797 10794 10792 10790 10788 10786 10784 10783 10781 10780 10778 10776 10773 10771 10769 10767 10766 10766 10766 10766 10766 10766 10766 10766 10766 10767 10767 10767 10767 10767 10768
10875 10874 10872 10871 10869 10868 10868 10867 10867 10866 10866 10865 10865 10864 10863 10863 10862 10861 10860 10859 10858 10856 10856 10854 10853 10852 10850 10848 10846 10843 10841 10839 10838 10836 10833 10830 10828 10826 10824 10823 10822 10821 10820 10818 10816 10814 10813 10810 10808 10806 10804 10802 10799 10797 10793 10791 10789 10787 10785 10783 10782 10780 10779 10777 10775 10773 10771 10769 10767 10765 10764 10764 10763 10764 10764 10764 10764 10764 10764 10764 10765 10765 10765 10765 10765
10870 10869 10868 10866 10864 10863 10862 10862 10861 10861 10861 10860 10860 10859 10858 10858 10857 10856 10855 10854 10853 10852 10851 10849 10848 10847 10846 10844 10841 10839 10837 10835 10833 10831 10829 10826 10824 10822 10820 10818 10818 10817 10815 10814 10812 10810 10809 10807 10804 10802 10800 10798 10796 10793 10790 10788 10786 10785 10783 10781 10779 10778 10776 10775 10773 10771 10769 10767 10765 10763 10762 10761 10761 10761 10762 10761 10761 10762 10762 10762 10762 10763 10763 10763 10763
10865 10864 10862 10861 10859 10857 10857 10856 10856 10856 10856 10855 10854 10854 10853 10853 10852 10851 10850 10849 10848 10847 10846 10844 10844 10842 10841 10839 10837 10836 10834 10832 10829 10827 10824 10822 10819 10817 10815 10814 10813 10812 10811 10810 10808 10806 10805 10803 10800 10797 10796 10794 10792 10790 10787 10785 10784 10782 10781 10779 10777 10776 10774 10772 10770 10769 10766 10764 10762 10761 10759 10758 10757 10758 10758 10759 10759 10759 10759 10759 10760 10760 10760 10760 10760
10859 10858 10856 10854 10853 10852 10851 10852 10852 10851 10851 10850 10850 10849 10849 10848 10847 10845 10844 10844 10843 10842 10841 10839 10838 10837 10836 10834 10833 10832 10830 10827 10824 10822 10820 10818 10815 10813 10811 10810 10809 10808 10807 10806 10804 10802 10800 10799 10796 10794 10792 10790 10788 10786 10784 10782 10781 10779 10778 10776 10775 10773 10771 10770 10768 10766 10764 10761 10760 10758 10757 10756 10755 10754 10754 10755 10756 10756 10757 10757 10757 10757 10758 10758 10758
10853 10852 10849 10847 10846 10846 10846 10847 10847 10847 10847 10846 10845 10845 10845 10843 10841 10840 10839 10839 10838 10837 10836 10834 10833 10831 10830 10829 10828 10827 10825 10823 10820 10818 10816 10814 10811 10809 10807 10806 10805 10804 10803 10802 10800 10798 10796 10794 10792 10790 10788 10786 10784 10783 10781 10779 10778 10776 10775 10773 10772 10770 10769 10767 10765 10763 10761 10759 10757 10756 10754 10753 10752 10751 10751 10752 10752 10753 10754 10754 10754 10755 10755 10755 10756
10846 10844 10842 10841 10841 10841 10841 10842 10843 10843 10842 10842 10842 10842 10840 10837 10835 10834 10834 10834 10833 10832 10830 10829 10827 10826 10825 10824 10823 10822 10820 10818 10816 10813 10811 10810 10808 10805 10803 10801 10800 10799 10798 10797 10796 10794 10792 10790 10789 10786 10785 10783 10781 10779 10778 10776 10775 10774 10772 10770 10768 10768 10767 10765 10763 10761 10758 10756 10755 10753 10752 10751 10750 10750 10750 10749 10750 10750 10751 10751 10752 10752 10752 10753 10753
10838 10837 10836 10836 10835 10836 10837 10838 10839 10838 10838 10838 10838 10837 10834 10831 10830 10829 10829 10828 10827 10826 10825 10824 10822 10821 10820 10819 10818 10816 10815 10813 10811 10809 10807 10806 10804 10801 10799 10797 10796 10795 10794 10793 10791 10789 10788 10787 10785 10783 10781 10779 10778 10776 10775 10773 10772 10771 10769 10766 10765 10765 10764 10762 10760 10758 10755 10753 10752 10751 10750 10749 10749 10748 10748 10748 10748 10748 10748 10749 10749 10749 10750 10750 10751
10832 10831 10830 10830 10831 10832 10834 10835 10835 10834 10834 10835 10834 10831 10828 10826 10825 10825 10824 10823 10823 10822 10820 10819 10818 10816 10815 10814 10813 10811 10810 10808 10807 10805 10804 10802 10800 10798 10795 10794 10792 10790 10789 10788 10787 10786 10784 10783 10781 10780 10778 10776 10775 10774 10772 10771 10769 10768 10766 10763 10762 10762 10762 10760 10758 10755 10753 10751 10749 10749 10748 10747 10746 10746 10746 10746 10746 10746 10746 10747 10747 10747 10747 10748 10748
10826 10825 10825 10825 10827 10829 10830 10830 10830 10830 10830 10830 10829 10825 10823 10822 10821 10821 10820 10819 10818 10817 10815 10814 10813 10812 10810 10809 10808 10807 10805 10803 10802 10801 10799 10797 10795 10793 10791 10790 10788 10786 10785 10785 10784 10782 10780 10779 10778 10777 10775 10774 10773 10772 10770 10768 10766 10765 10762 10760 10759 10759 10760 10758 10754 10752 10750 10748 10747 10746 10745 10744 10744 10743 10743 10743 10743 10744 10744 10744 10744 10744 10744 10745 10745
10819 10819 10820 10822 10824 10825 10825 10825 10825 10826 10825 10824 10822 10820 10819 10818 10817 10816 10815 10814 10813 10812 10811 10810 10808 10807 10805 10804 10803 10802 10800 10799 10798 10797 10795 10792 10791 10789 10787 10786 10784 10782 10782 10781 10780 10779 10777 10775 10775 10774 10773 10771 10770 10769 10768 10765 10763 10761 10759 10757 10755 10756 10757 10755 10751 10749 10748 10746 10744 10743 10742 10741 10741 10741 10740 10741 10741 10741 10741 10741 10741 10741 10741 10742 10742
10813 10814 10816 10818 10819 10820 10820 10820 10820 10820 10819 10817 10816 10815 10814 10813 10812 10812 10810 10808 10808 10807 10806 10805 10804 10802 10801 10800 10799 10797 10796 10795 10794 10792 10790 10788 10786 10785 10784 10782 10781 10779 10778 10778 10777 10775 10774 10772 10772 10771 10770 10769 10768 10766 10765 10762 10760 10759 10757 10754 10752 10752 10754 10753 10749 10746 10745 10743 10742 10740 10739 10738 10738 10738 10738 10738 10738 10738 10738 10738 10738 10738 10738 10739 10739
10807 10810 10813 10814 10815 10815 10814 10814 10814 10813 10811 10810 10810 10810 10809 10808 10808 10807 10805 10803 10803 10802 10801 10800 10799 10798 10797 10795 10794 10793 10791 10790 10789 10787 10785 10783 10782 10782 10781 10779 10778 10776 10775 10774 10773 10772 10771 10770 10769 10768 10767 10766 10765 10764 10762 10760 10758 10756 10754 10751 10748 10748 10750 10750 10746 10744 10743 10741 10739 10737 10736 10736 10735 10735 10736 10736 10736 10736 10735 10735 10735 10735 10736 10736 10737
10803 10807 10809 10810 10810 10809 10808 10808 10807 10806 10805 10804 10804 10804 10804 10804 10803 10801 10800 10798 10798 10797 10796 10795 10794 10793 10792 10790 10789 10788 10786 10785 10784 10782 10780 10779 10778 10778 10777 10775 10774 10773 10772 10771 10769 10768 10767 10767 10766 10765 10764 10763 10762 10761 10759 10757 10755 10753 10751 10748 10745 10744 10746 10747 10745 10742 10741 10739 10736 10735 10734 10733 10733 10733 10733 10733 10733 10733 10733 10733 10733 10733 10733 10734 10735
10800 10802 10804 10805 10804 10802 10801 10801 10800 10800 10799 10799 10798 10798 10798 10798 10797 10796 10795 10794 10793 10792 10791 10790 10789 10788 10786 10785 10784 10782 10781 10780 10778 10777 10776 10775 10774 10773 10772 10771 10771 10770 10768 10767 10766 10765 10764 10763 10763 10762 10761 10760 10759 10758 10756 10754 10752 10751 10749 10746 10741 10739 10741 10743 10742 10740 10738 10736 10734 10733 10731 10731 10730 10730 10731 10731 10731 10731 10730 10731 10731 10731 10732 10732 10733
10796 10797 10799 10800 10798 10796 10795 10794 10793 10794 10794 10794 10794 10793 10793 10793 10791 10790 10790 10789 10788 10788 10786 10785 10784 10783 10781 10780 10778 10777 10776 10775 10773 10772 10771 10770 10769 10769 10768 10767 10767 10766 10765 10764 10762 10761 10760 10760 10759 10759 10758 10757 10756 10755 10754 10752 10750 10748 10746 10743 10738 10736 10737 10739 10739 10738 10735 10733 10732 10730 10729 10728 10728 10728 10728 10728 10728 10728 10728 10729 10729 10730 10730 10731 10732
10789 10792 10794 10792 10790 10790 10789 10788 10788 10789 10789 10789 10789 10788 10788 10787 10785 10785 10785 10784 10784 10783 10781 10780 10779 10777 10776 10774 10773 10771 10770 10769 10768 10767 10766 10766 10765 10764 10764 10764 10763 10763 10762 10760 10759 10758 10757 10756 10756 10755 10755 10754 10753 10751 10750 10749 10747 10745 10742 10739 10735 10732 10733 10735 10735 10735 10732 10730 10729 10727 10726 10725 10725 10725 10725 10725 10726 10726 10726 10727 10727 10728 10729 10730 10731
10783 10786 10785 10784 10783 10783 10782 10782 10782 10784 10784 10784 10784 10783 10782 10781 10780 10780 10779 10779 10778 10778 10776 10775 10773 10772 10771 10769 10768 10766 10765 10764 10763 10763 10762 10761 10761 10760 10760 10760 10760 10759 10758 10757 10755 10754 10753 10753 10752 10752 10752 10751 10750 10748 10747 10746 10744 10741 10739 10736 10732 10729 10730 10731 10731 10731 10729 10727 10725 10724 10723 10723 10722 10722 10722 10723 10723 10724 10724 10725 10726 10727 10728 10729 10730
10778 10778 10777 10776 10775 10775 10775 10776 10777 10778 10779 10778 10778 10777 10776 10774 10774 10775 10774 10774 10773 10773 10771 10770 10768 10766 10765 10764 10763 10762 10760 10759 10759 10758 10758 10757 10757 10757 10756 10756 10756 10755 10754 10753 10751 10750 10749 10749 10749 10749 10748 10747 10746 10745 10744 10742 10740 10738 10735 10733 10729 10726 10726 10727 10727 10726 10725 10724 10723 10722 10721 10720 10719 10719 10719 10720 10721 10722 10722 10723 10724 10725 10726 10727 10728
10771 10771 10770 10769 10768 10768 10769 10770 10772 10773 10774 10773 10772 10770 10769 10768 10769 10770 10769 10769 10769 10768 10766 10764 10763 10761 10760 10759 10758 10757 10755 10754 10754 10754 10754 10753 10753 10753 10753 10752 10752 10751 10750 10749 10748 10747 10746 10745 10745 10745 10745 10744 10742 10741 10740 10738 10736 10733 10730 10729 10726 10722 10722 10723 10723 10722 10721 10721 10720 10719 10718 10717 10717 10717 10717 10718 10719 10720 10720 10721 10722 10723 10724 10725 10726
10765 10764 10763 10762 10762 10763 10764 10766 10768 10769 10768 10766 10765 10763 10763 10764 10765 10765 10765 10765 10764 10763 10761 10759 10758 10756 10755 10754 10753 10752 10751 10751 10750 10750 10749 10749 10749 10749 10748 10748 10748 10747 10746 10746 10745 10744 10743 10742 10742 10741 10741 10739 10738 10737 10736 10734 10732 10729 10726 10725 10722 10719 10719 10720 10720 10719 10718 10718 10717 10717 10716 10715 10715 10715 10716 10717 10717 10718 10719 10719 10720 10721 10722 10722 10723
10758 10758 10757 10757 10757 10758 10760 10762 10763 10764 10762 10760 10758 10758 10758 10759 10760 10760 10761 10760 10759 10758 10756 10755 10753 10752 10750 10749 10748 10748 10747 10747 10747 10746 10746 10745 10745 10745 10744 10744 10744 10743 10743 10742 10741 10741 10739 10738 10738 10737 10737 10736 10735 10733 10732 10730 10728 10725 10723 10721 10718 10715 10715 10716 10717 10716 10715 10715 10715 10715 10714 10713 10713 10714 10715 10716 10716 10717 10717 10718 10718 10719 10719 10720 10721
10752 10752 10752 10752 10753 10754 10756 10757 10759 10758 10755 10753 10753 10753 10755 10755 10755 10756 10756 10755 10754 10753 10751 10750 10749 10748 10746 10744 10744 10744 10744 10744 10744 10743 10743 10743 10742 10741 10741 10740 10740 10739 10738 10738 10738 10737 10736 10735 10735 10734 10733 10732 10731 10729 10728 10726 10723 10721 10719 10717 10715 10712 10712 10713 10714 10714 10713 10713 10713 10713 10712 10711 10711 10712 10713 10714 10715 10715 10716 10716 10716 10717 10717 10718 10718
10745 10746 10747 10747 10748 10750 10751 10752 10753 10752 10750 10748 10748 10749 10750 10750 10750 10751 10751 10750 10749 10748 10746 10746 10745 10744 10743 10741 10740 10740 10740 10740 10740 10740 10740 10740 10739 10738 10737 10737 10736 10735 10734 10734 10734 10733 10733 10732 10732 10730 10729 10728 10726 10725 10723 10721 10718 10716 10714 10713 10711 10710 10710 10711 10712 10712 10711 10711 10711 10712 10712 10710 10710 10710 10711 10711 10712 10713 10713 10713 10714 10714 10715 10715 10716
10739 10740 10742 10743 10745 10746 10746 10747 10748 10747 10745 10743 10743 10745 10746 10745 10745 10746 10745 10745 10744 10743 10742 10740 10740 10740 10740 10738 10737 10737 10737 10737 10736 10736 10736 10736 10736 10735 10734 10734 10733 10732 10731 10731 10731 10730 10730 10729 10728 10727 10726 10724 10722 10720 10718 10717 10714 10711 10709 10709 10707 10707 10708 10708 10709 10709 10708 10708 10709 10710 10711 10710 10708 10708 10709 10710 10710 10710 10711 10711 10711 10712 10712 10713 10713
10733 10735 10738 10740 10741 10742 10741 10741 10742 10742 10740 10738 10738 10739 10741 10741 10740 10740 10740 10739 10739 10739 10737 10735 10736 10737 10736 10735 10734 10734 10733 10733 10732 10732 10732 10732 10731 10731 10730 10730 10729 10729 10729 10728 10728 10727 10727 10726 10725 10723 10722 10719 10717 10715 10713 10712 10710 10706 10704 10704 10703 10704 10705 10705 10705 10705 10705 10705 10706 10708 10709 10709 10707 10706 10707 10708 10708 10708 10708 10708 10709 10709 10710 10710 10710
10728 10730 10733 10736 10736 10736 10735 10735 10737 10737 10735 10733 10732 10734 10736 10736 10735 10735 10734 10734 10735 10734 10732 10731 10732 10732 10732 10731 10731 10731 10730 10729 10728 10727 10727 10727 10727 10726 10726 10726 10725 10726 10725 10725 10724 10724 10723 10722 10720 10718 10716 10714 10712 10710 10709 10707 10706 10703 10699 10699 10700 10700 10701 10702 10702 10702 10702 10702 10703 10704 10706 10706 10705 10705 10705 10705 10706 10706 10706 10706 10706 10706 10707 10707 10707
10723 10725 10729 10731 10730 10729 10729 10730 10732 10731 10729 10727 10726 10728 10729 10731 10730 10729 10728 10729 10729 10729 10728 10727 10727 10727 10727 10727 10727 10727 10726 10725 10724 10723 10723 10723 10723 10722 10721 10721 10721 10721 10721 10721 10720 10719 10719 10717 10715 10713 10711 10710 10708 10706 10704 10703 10702 10698 10696 10695 10696 10697 10698 10698 10700 10700 10699 10700 10701 10703 10704 10704 10703 10704 10704 10703 10704 10704 10704 10703 10703 10703 10703 10703 10703
10718 10721 10724 10723 10721 10722 10725 10729 10729 10725 10722 10720 10720 10722 10724 10725 10724 10723 10723 10724 10724 10724 10724 10724 10723 10722 10722 10722 10722 10722 10721 10720 10719 10719 10719 10719 10719 10718 10718 10717 10717 10717 10717 10716 10716 10715 10714 10712 10711 10709 10707 10705 10704 10702 10700 10699 10697 10695 10693 10692 10693 10694 10695 10696 10697 10698 10698 10699 10700 10701 10702 10701 10702 10702 10702 10701 10701 10701 10700 10700 10700 10699 10700 10700 10699
10714 10717 10717 10714 10714 10718 10723 10727 10724 10716 10713 10715 10716 10718 10719 10719 10718 10718 10719 10719 10719 10719 10719 10720 10719 10718 10717 10717 10716 10717 10717 10716 10715 10715 10714 10715 10715 10714 10714 10713 10713 10712 10712 10712 10711 10710 10709 10708 10707 10705 10704 10702 10701 10699 10696 10694 10693 10692 10691 10691 10691 10692 10693 10693 10695 10696 10697 10698 10698 10699 10700 10700 10700 10700 10699 10699 10698 10697 10697 10697 10697 10697 10697 10696 10696
10708 10709 10710 10709 10711 10716 10719 10719 10714 10708 10708 10711 10713 10714 10713 10713 10713 10713 10714 10715 10714 10714 10715 10715 10715 10714 10714 10713 10712 10712 10712 10712 10712 10711 10711 10711 10711 10711 10710 10709 10709 10708 10708 10707 10707 10706 10705 10704 10703 10701 10700 10699 10697 10695 10693 10691 10690 10689 10689 10689 10689 10690 10691 10692 10693 10694 10695 10696 10697 10697 10698 10697 10697 10697 10696 10695 10695 10694 10694 10695 10695 10695 10694 10693 10692
10702 10703 10705 10705 10706 10709 10710 10710 10708 10705 10705 10707 10709 10709 10708 10708 10707 10708 10710 10710 10710 10710 10710 10711 10711 10710 10709 10709 10708 10708 10708 10708 10708 10708 10707 10707 10707 10707 10706 10706 10705 10704 10703 10703 10702 10702 10701 10700 10699 10698 10697 10695 10693 10690 10688 10687 10687 10687 10687 10687 10687 10688 10689 10690 10690 10691 10693 10694 10694 10694 10695 10694 10694 10693 10692 10692 10692 10692 10692 10693 10693 10692 10691 10690 10689
10697 10699 10699 10698 10698 10700 10702 10704 10704 10702 10701 10702 10704 10704 10703 10703 10703 10704 10705 10705 10705 10706 10706 10707 10706 10706 10705 10704 10703 10703 10703 10704 10704 10704 10703 10702 10702 10702 10702 10701 10701 10700 10699 10698 10698 10698 10698 10697 10696 10695 10693 10692 10690 10686 10683 10683 10684 10685 10685 10685 10686 10686 10687 10688 10687 10688 10690 10691 10692 10692 10692 10692 10692 10690 10689 10689 10688 10689 10690 10690 10690 10689 10688 10687 10687
10693 10692 10692 10690 10691 10692 10695 10698 10700 10699 10698 10697 10698 10698 10699 10698 10698 10700 10700 10700 10701 10702 10702 10703 10702 10702 10701 10700 10700 10699 10699 10700 10701 10701 10700 10699 10697 10697 10697 10697 10696 10696 10695 10695 10695 10695 10695 10694 10693 10692 10689 10688 10686 10684 10681 10680 10681 10683 10682 10683 10683 10684 10684 10684 10684 10685 10686 10688 10689 10690 10690 10691 10690 10688 10686 10685 10685 10686 10687 10687 10686 10686 10686 10685 10685
10688 10685 10683 10683 10684 10685 10690 10693 10695 10695 10694 10693 10693 10693 10693 10693 10693 10695 10695 10696 10697 10698 10698 10699 10699 10698 10698 10697 10697 10697 10696 10696 10697 10697 10696 10696 10695 10694 10693 10693 10692 10692 10691 10691 10691 10692 10692 10692 10690 10688 10686 10684 10683 10682 10680 10678 10679 10680 10680 10680 10680 10681 10681 10682 10682 10683 10684 10684 10685 10687 10688 10688 10687 10685 10683 10682 10682 10683 10683 10683 10683 10683 10683 10683 10683
10683 10678 10672 10675 10678 10680 10686 10688 10689 10690 10690 10690 10689 10689 10689 10688 10688 10690 10691 10692 10693 10694 10695 10695 10695 10695 10694 10694 10694 10693 10693 10693 10692 10692 10692 10693 10693 10692 10691 10690 10689 10689 10689 10689 10689 10689 10689 10688 10686 10685 10683 10681 10681 10680 10679 10678 10678 10678 10678 10678 10678 10679 10679 10679 10680 10681 10681 10681 10682 10683 10684 10684 10683 10681 10680 10679 10679 10680 10680 10680 10680 10680 10680 10680 10680
10677 10671 10665 10669 10674 10676 10680 10682 10684 10686 10686 10686 10685 10686 10686 10685 10685 10686 10687 10688 10689 10690 10691 10691 10691 10691 10691 10690 10690 10690 10690 10689 10689 10688 10688 10688 10688 10688 10688 10687 10687 10687 10686 10686 10686 10686 10685 10684 10683 10682 10680 10679 10679 10678 10678 10678 10677 10676 10676 10676 10677 10677 10677 10677 10678 10678 10678 10678 10679 10679 10680 10680 10678 10676 10676 10675 10675 10676 10676 10676 10676 10677 10677 10677 10678
10671 10666 10665 10667 10670 10673 10675 10677 10679 10681 10681 10682 10682 10682 10682 10683 10683 10683 10683 10684 10685 10686 10687 10687 10686 10686 10686 10686 10686 10686 10686 10685 10684 10684 10683 10683 10683 10683 10683 10684 10684 10684 10684 10683 10682 10682 10681 10680 10679 10679 10678 10677 10677 10677 10676 10676 10676 10675 10674 10674 10675 10676 10675 10675 10676 10676 10675 10675 10676 10676 10675 10675 10674 10673 10672 10672 10672 10673 10673 10673 10673 10674 10673 10673 10674
10665 10664 10664 10665 10667 10670 10671 10673 10675 10676 10677 10677 10678 10678 10679 10679 10680 10680 10680 10680 10681 10682 10682 10682 10681 10682 10682 10682 10682 10681 10681 10681 10680 10680 10679 10679 10679 10679 10680 10680 10680 10681 10680 10679 10679 10679 10678 10677 10676 10675 10676 10675 10675 10675 10675 10675 10674 10673 10672 10672 10673 10675 10674 10673 10673 10673 10673 10673 10672 10672 10672 10671 10671 10670 10670 10670 10670 10670 10670 10670 10671 10671 10670 10669 10670
10660 10659 10661 10662 10663 10665 10667 10669 10670 10670 10671 10672 10673 10674 10674 10675 10676 10677 10677 10676 10677 10678 10678 10678 10677 10678 10678 10678 10677 10677 10677 10676 10676 10676 10676 10676 10676 10676 10676 10676 10676 10676 10676 10675 10675 10675 10674 10673 10673 10673 10673 10673 10673 10673 10673 10673 10672 10672 10670 10669 10670 10672 10673 10671 10670 10670 10670 10670 10670 10669 10669 10668 10668 10667 10667 10666 10667 10668 10668 10668 10668 10668 10667 10666 10666
10655 10655 10657 10658 10658 10660 10663 10664 10665 10665 10666 10667 10669 10670 10670 10671 10672 10672 10672 10672 10673 10673 10673 10673 10673 10674 10674 10674 10674 10673 10673 10673 10673 10673 10673 10673 10673 10673 10673 10673 10673 10673 10672 10672 10672 10672 10671 10670 10670 10670 10670 10670 10670 10671 10671 10671 10671 10670 10668 10667 10666 10668 10669 10669 10668 10667 10667 10668 10668 10667 10666 10665 10664 10663 10663 10662 10663 10664 10664 10664 10664 10664 10664 10663 10663
10651 10651 10653 10653 10654 10656 10658 10659 10659 10660 10661 10663 10664 10665 10666 10667 10667 10668 10667 10668 10668 10668 10668 10668 10669 10669 10669 10669 10669 10669 10669 10670 10670 10670 10670 10670 10670 10670 10670 10669 10669 10669 10669 10668 10669 10669 10668 10667 10667 10667 10667 10667 10667 10667 10668 10669 10668 10668 10667 10665 10664 10663 10663 10664 10665 10664 10663 10664 10664 10664 10662 10661 10660 10658 10658 10658 10659 10659 10659 10659 10659 10659 10659 10659 10659
10646 10647 10648 10649 10650 10652 10653 10654 10655 10655 10657 10658 10659 10660 10661 10661 10662 10662 10662 10663 10663 10663 10663 10662 10662 10663 10663 10664 10664 10665 10665 10666 10666 10666 10666 10666 10666 10666 10666 10665 10666 10665 10665 10665 10665 10665 10665 10664 10663 10663 10663 10664 10664 10664 10665 10665 10665 10665 10664 10663 10661 10660 10659 10659 10660 10659 10658 10658 10658 10658 10657 10655 10654 10654 10653 10654 10654 10654 10654 10653 10653 10653 10653 10653 10653
10642 10643 10643 10643 10645 10647 10648 10650 10651 10652 10653 10654 10655 10656 10656 10656 10657 10657 10657 10657 10657 10657 10657 10657 10657 10657 10658 10658 10659 10660 10661 10662 10662 10661 10661 10661 10661 10662 10662 10662 10662 10662 10661 10662 10662 10662 10661 10660 10660 10660 10660 10661 10661 10661 10662 10662 10661 10661 10661 10659 10658 10656 10656 10655 10655 10655 10654 10652 10651 10651 10650 10649 10649 10649 10650 10650 10650 10649 10648 10648 10647 10647 10647 10647 10647
10639 10639 10639 10639 10641 10642 10644 10646 10648 10649 10650 10650 10651 10651 10652 10652 10652 10652 10652 10652 10652 10652 10652 10652 10652 10652 10653 10653 10654 10655 10656 10657 10658 10657 10657 10657 10657 10658 10658 10657 10658 10658 10658 10658 10659 10658 10658 10658 10657 10657 10657 10657 10658 10658 10658 10658 10658 10657 10657 10656 10654 10653 10652 10652 10651 10651 10649 10647 10646 10645 10645 10644 10644 10645 10645 10646 10645 10644 10643 10642 10642 10642 10641 10641 10641
10635 10636 10636 10636 10637 10638 10640 10643 10644 10646 10647 10647 10647 10647 10647 10648 10647 10647 10647 10647 10647 10646 10647 10647 10648 10648 10649 10648 10649 10650 10651 10653 10654 10653 10652 10652 10653 10653 10653 10653 10653 10654 10654 10655 10655 10655 10655 10654 10654 10654 10654 10655 10654 10654 10654 10654 10654 10654 10653 10652 10651 10650 10649 10648 10647 10646 10645 10643 10642 10640 10640 10640 10640 10641 10641 10640 10639 10638 10637 10637 10636 10636 10636 10636 10636